Location: Unspecified
(50.1700°N, 6.8600°E)
Time: 17:16:44
(UTC+00:00)

N. Korean satellite - Visible Passes

Search period start: 15 October 2019 00:00
Search period end: 25 October 2019 00:00
Orbit: 455 x 508 km, 97.2° (Epoch: 14 October)

Date Brightness Start Highest point End Pass type
(mag) Time Alt. Az. Time Alt. Az. Time Alt. Az.
15 Oct 7.6 05:20:51 10° NNE 05:24:20 52° E 05:27:52 10° S visible
15 Oct 10.0 17:35:25 10° SW 17:37:41 17° W 17:39:58 10° NW visible
16 Oct 9.1 04:55:51 10° NE 04:58:57 27° E 05:02:05 10° SSE visible
16 Oct 8.8 17:09:08 10° SSW 17:12:12 31° W 17:15:19 10° NNW visible
17 Oct 10.0 04:31:18 10° NE 04:33:29 15° E 04:35:39 10° SE visible
18 Oct 10.5 17:54:32 10° WSW 17:55:21 11° W 17:56:12 10° WNW visible
19 Oct 8.0 05:13:05 10° NNE 05:16:32 43° E 05:20:02 10° S visible
19 Oct 9.7 17:27:13 10° SW 17:29:48 20° W 17:32:26 10° NW visible
20 Oct 9.4 04:48:11 10° NE 04:51:07 23° E 04:54:05 10° SSE visible
20 Oct 8.3 17:01:08 10° SSW 17:04:21 37° W 17:07:37 10° NNW visible
21 Oct 10.2 04:23:53 10° ENE 04:25:36 13° E 04:27:20 10° ESE visible
22 Oct 7.0 05:30:27 10° NNE 05:34:04 71° ESE 05:37:44 10° S visible
22 Oct 10.2 17:45:45 10° WSW 17:47:26 13° W 17:49:08 10° WNW visible
23 Oct 8.5 05:05:19 10° NNE 05:08:42 36° E 05:12:06 10° SSE visible
23 Oct 9.3 17:19:03 10° SSW 17:21:54 24° W 17:24:48 10° NW visible
24 Oct 9.7 04:40:30 10° NE 04:43:15 20° E 04:45:59 10° SE visible
24 Oct 7.8 16:53:07 10° S 16:56:27 47° W 16:59:51 10° NNW visible
